Location: Recife
(8.0585°S, 34.8848°W)
Time: 06:55:35
(UTC-03:00)

Courier 1B Rocket - Pass Details

Date: 19 April 2026
Orbit: 920 x 1201 km, 28.2° (Epoch: 13 May)

Event Time Altitude Azimuth Distance (km) Brightness Sun altitude
Rises 13:58:04 0° 255° (WSW) 4,043 8.7 45.9°
Reaches altitude 10° 14:01:05 10° 263° (W) 3,102 8.4 45.2°
Maximum altitude 14:08:13 40° 329° (NNW) 1,698 7.7 43.6°
Drops below altitude 10° 14:15:23 10° 36° (NE) 3,106 7.6 42.0°
Sets 14:18:24 0° 43° (NE) 4,049 8.1 41.3°
